Location: Lugano
(46.0000°N, 8.9670°E)
Time: 17:26:29
(UTC+02:00)

Envisat - Pass Details

Date: 18 March 2026
Orbit: 761 x 762 km, 98.4° (Epoch: 19 April)

Event Time Altitude Azimuth Distance (km) Brightness Sun altitude
Rises 03:29:06 0° 10° (N) 3,235 6.9 -30.7°
Reaches altitude 10° 03:31:26 10° 8° (N) 2,305 5.9 -30.4°
Enters shadow 03:34:41 39° 352° (N) 1,135 4.0 -29.9°
